sat.trackr.live / text

‹ back to catalog

STARLINK-34446

NORAD 65495 · 2025-198D

PAYLOAD ACTIVE UNKNOWN

§ Identity

Operator
Country
US
Launch date
2025-09-05
Launch site
AFETR
Launch vehicle
Mass (kg)
RCS (m²)

Purposes: comms

External: N2YO · Heavens-Above · Gunter

§ Orbital elements

Epoch: 2026-09-20T22:20:11.962464Z

Period
93.85 min
Inclination
53.1580°
Eccentricity
0.0000230
Mean motion
15.34423934 rev/d
Perigee alt
462.5 km
Apogee alt
462.8 km
Semi-major
6,840.8 km
B*
7.0385e-4
RAAN
81.9068°
Arg perigee
159.2674°
Mean anomaly
200.8338°
Rev number
5,854

§ Raw data

STARLINK-344461 65495U 25198D   26263.93069401  .00023497  00000+0  70385-3 0  99952 65495  53.1580  81.9068 0000230 159.2674 200.8338 15.34423934 58548

JSON: /api/v1/satellites/65495 · /tle

For live sub-satellite position, see the globe view (requires WebGL).

§ Visibility from observer

Set your observer location to see the next 7 days of passes ≥ 10°. The values pass through the URL so the page stays shareable.

No JS? Fill the form by hand. The geolocation button needs JavaScript.